Find Starlink 6139

NORAD ID: 57109 Int'l Des: 2023-090 Owner: SPXS Country: US Constellation: starlink operational
LEOCIRCULAR

实时位置

正在加载3D地球...

关于 Starlink 6139

正在加载描述...

即将过境

Passes for default location (London). Set your location on the main map for personalized predictions.

高度历史

Loading altitude history...

两行轨道根数

1 57109U 23090J 26127.77492396 .00001022 00000-0 46664-4 0 9996
2 57109 43.0023 308.3046 0002033 256.1041 103.9585 15.27572801159360
Epoch: May 7, 2026 • Age: 6 hours

当前状态

高度 485.0 km
速度 7.62 km/s
星下点 -11.95°S, 55.95°E
发射日期 Jun 23, 2023
运行时间 2.8 years
类型 internet

技术详情

分类 Payload
质量 305.00 kg
干质量 290.00 kg
总质量 305.00 kg
长度 0.20 m
直径 2.80 m
跨度 9.00 m
形状 Box + pan
制造商 SPXS
平台类型 Starlink
阶段状态 In Orbit
所有者/国家 SPXS/US

Most Searched